H-2A DEB, 28243

Orbit data source: Space-Track

H-2A DEB, 28243 is space debris in HEO originally from a launch on Mon, 04 Feb 2002 UTC launched from the Tanegashima Space Center (TNSTA). Debris objects in space refer to the collection of defunct objects orbiting the Earth. Examples of debris include non-operational satellites, rocket bodies, and fragments generated from explosions, collisions, or faulty payload assembly.

Not visible in the next 10 days
Identifier
28243, 2002-003E
Orbit
HEO
Country
Flag of JPJP / JPN
Related business
Manufacturer
MHI Tobishima
Mission
Spacecraft
Bus & Motor
Unknown
Mass
~200 kg wet, ~200 kg dry
Launch date (UTC)
2002-02-04 (24 years ago)
Launch vehicle
Unknown
Launch site
Tanegashima Space Center (TNSTA)
Object type
Payload
Rocket body
Debris
Shape & HBR
Half Cyl, 2.0 m
Radar Cross Section
13.425 m², Large (>1 m²)

Expand to show TLE details & history
Last TLE update: 22 hours ago

TLE from 22 hours ago
0 H-2A DEB
1 28243U 02003E   26209.02555784  .00004863  00000-0  56622-2 0  9993
2 28243  28.3006 148.1878 7056974 114.1553 331.4238  2.51259014  5856
Epoch: 2026-07-28T00:36Z
TLE epoch observation values (Epoch: 2026-07-28T00:36:48.197Z)
Latitude
-0.00001°
Longitude
-166.82029°
Altitude
9,772.832 km
Speed
5.65 km/s
True Right ascension
09h 52m 19s
True Declination
0° 00' 00"
Sunlit
Object was in daylight at epoch
Visualization orbit readout
Latitude
Unknown
Longitude
Unknown
Altitude
Unknown
Speed
Unknown
Apparent Right ascension
Unknown
Apparent Declination
Unknown
Sunlit
N/A
Visualization observer readout
Local Sidereal Time
11:37:59
Azimuth
Unknown
Elevation
Unknown
Doppler factor
Unknown
Orbital elements
Apogee altitude
32,612.282 km
Perigee altitude
349.306 km
Semi-major axis
22,858.931 km
Eccentricity
0.7057
Inclination
28.3006°
RAAN
148.1878°
Arg. of periapsis
114.1553°
True anomaly
245.89313°
Mean anomaly
331.4238°
Eccentric anomaly
294.68532°
Mean motion
0.628 °/min
Orbital period
573.25 mins
BSTAR
0.0056622
Loading maneuver chart data...
Computing Atmospheric mass density...
Loading historical data...
Loading historical data...
Loading historical data...
Loading historical data...
Loading historical data...
Loading historical data...
Loading historical data...
Other satellites on launch #3 in the year 2002 (2002-02-04 UTC)

Documentation

Showing up to 5 results
|